Weather History for Paducah, KY

Change the Weather History Date:

Friday, July 19, 2013

  Actual Average Record
Temperature  
Mean Temperature 80 °F 79 °F  
Max Temperature 90 °F 89 °F 102 °F (1980)
Min Temperature 70 °F 69 °F 59 °F (1976)
Degree Days  
Heating Degree Days 0 0  
Month to date heating degree days 0 0  
Since 1 June heating degree days 0 4  
Since 1 July heating degree days 0 0  
Cooling Degree Days 15 14  
Month to date cooling degree days 219 266  
Year to date cooling degree days 714 758  
Since 1 June cooling degree days 536 586  
Growing Degree Days 30 (Base 50)    
Moisture  
Dew Point 71 °F    
Average Humidity 78    
Maximum Humidity 100    
Minimum Humidity 56    
Precipitation  
Precipitation 0.00 in 0.13 in 1.80 in (1975)
Month to date precipitation 0.73 2.82  
Year to date precipitation 35.31 28.10  
Snow  
Snow 0.00 in 0.00 in 0.00 in (2002)
Month to date snowfall 0.0 0.0  
Since 1 June snowfall 0.0 0.0  
Since 1 July snowfall 0.0 0.0  
Snow Depth 0.00 in    
Sea Level Pressure  
Sea Level Pressure 30.01 in    
Wind  
Wind Speed 5 mph (SSW)    
Max Wind Speed 14 mph    
Max Gust Speed 16 mph    
Visibility 7 miles    
Events      
T = Trace of Precipitation, MM = Missing Value Source: NWS Daily Summary

Daily Weather History Graph

Daily Weather History Graph

Search for Another Location

Airport:

Trip Planner

Search our weather history database for the weather conditions in past years. The results will help you decide how hot, cold, wet, or windy it might be!

Date:

Astronomy

Jul. 19, 2013 Rise Set
Actual Time 5:50 AM CDT 8:12 PM CDT
Civil Twilight 5:20 AM CDT 8:41 PM CDT
Nautical Twilight 4:43 AM CDT 9:18 PM CDT
Astronomical Twilight 4:03 AM CDT 9:58 PM CDT
Moon 5:14 PM CDT (7/19) 2:30 AM CDT (7/19)
Length of Visible Light 15h 21m
Length of Day
14h 22m
Waxing Gibbous, 87% of the Moon is Illuminated
Jul 19
Waxing Gibbous
Jul 22
Full
Jul 29
Last Quarter
Aug 6
New
Aug 14
First Quarter

Hourly Weather History & Observations

Time (CDT) Temp. Heat Index Dew Point Humidity Pressure Visibility Wind Dir Wind Speed Gust Speed Precip Events Conditions
12:53 AM 73.9 °F - 72.0 °F 93% 30.04 in 5.0 mi Calm Calm - N/A   Clear
1:53 AM 73.0 °F - 71.1 °F 93% 30.02 in 6.0 mi Calm Calm - N/A   Clear
2:53 AM 72.0 °F - 71.1 °F 97% 30.03 in 4.0 mi Calm Calm - N/A   Clear
3:49 AM 71.6 °F - 69.8 °F 94% 30.03 in 2.5 mi Calm Calm - N/A   Clear
3:53 AM 72.0 °F - 70.0 °F 93% 30.02 in 2.5 mi Calm Calm - N/A   Clear
4:02 AM 71.6 °F - 69.8 °F 94% 30.03 in 3.0 mi Calm Calm - N/A   Clear
4:20 AM 71.6 °F - 69.8 °F 94% 30.03 in 2.5 mi Calm Calm - N/A   Clear
4:53 AM 70.0 °F - 69.1 °F 97% 30.02 in 2.5 mi Calm Calm - N/A   Clear
5:08 AM 71.6 °F - 69.8 °F 94% 30.03 in 3.0 mi Calm Calm - N/A   Clear
5:36 AM 71.6 °F - 69.8 °F 94% 30.04 in 2.5 mi South 3.5 mph - N/A   Clear
5:53 AM 71.1 °F - 70.0 °F 96% 30.02 in 2.0 mi Calm Calm - N/A   Clear
6:24 AM 71.6 °F - 69.8 °F 94% 30.05 in 1.5 mi South 4.6 mph - N/A   Clear
6:45 AM 71.6 °F - 71.6 °F 100% 30.05 in 3.0 mi Calm Calm - N/A   Clear
6:53 AM 73.0 °F - 72.0 °F 96% 30.04 in 3.0 mi South 3.5 mph - N/A   Clear
6:55 AM 73.4 °F - 71.6 °F 94% 30.05 in 3.0 mi South 3.5 mph - N/A   Clear
7:53 AM 75.9 °F - 71.1 °F 85% 30.06 in 3.0 mi SW 5.8 mph - N/A   Haze
8:53 AM 80.1 °F 83.6 °F 71.1 °F 74% 30.06 in 10.0 mi WSW 5.8 mph - N/A   Clear
9:53 AM 82.0 °F 85.9 °F 70.0 °F 67% 30.06 in 10.0 mi WSW 5.8 mph - N/A   Clear
10:53 AM 84.9 °F 90.1 °F 71.1 °F 63% 30.05 in 10.0 mi West 10.4 mph - N/A   Clear
11:53 AM 86.0 °F 92.2 °F 72.0 °F 63% 30.04 in 10.0 mi SW 8.1 mph - N/A   Partly Cloudy
12:53 PM 87.1 °F 93.6 °F 72.0 °F 61% 30.02 in 10.0 mi SSW 9.2 mph - N/A   Partly Cloudy
1:53 PM 89.1 °F 96.0 °F 72.0 °F 57% 30.00 in 10.0 mi WSW 10.4 mph 16.1 mph N/A   Scattered Clouds
2:53 PM 87.1 °F 92.8 °F 71.1 °F 59% 29.98 in 10.0 mi SW 6.9 mph - N/A   Scattered Clouds
3:53 PM 89.1 °F 95.0 °F 71.1 °F 55% 29.95 in 10.0 mi WSW 8.1 mph - N/A   Partly Cloudy
4:53 PM 88.0 °F 93.8 °F 71.1 °F 57% 29.94 in 10.0 mi SW 4.6 mph - N/A   Clear
5:53 PM 87.1 °F 93.6 °F 72.0 °F 61% 29.92 in 10.0 mi SSW 5.8 mph - N/A   Clear
6:53 PM 87.1 °F 92.8 °F 71.1 °F 59% 29.92 in 10.0 mi SW 3.5 mph - N/A   Clear
7:53 PM 82.9 °F 88.8 °F 73.0 °F 72% 29.93 in 10.0 mi SW 3.5 mph - N/A   Clear
8:53 PM 79.0 °F - 73.0 °F 82% 29.93 in 10.0 mi Calm Calm - N/A   Clear
9:53 PM 77.0 °F - 73.0 °F 88% 29.94 in 10.0 mi South 3.5 mph - N/A   Clear
10:53 PM 79.0 °F - 72.0 °F 79% 29.94 in 10.0 mi South 5.8 mph - N/A   Clear
11:53 PM 78.1 °F - 72.0 °F 81% 29.94 in 10.0 mi South 5.8 mph - N/A   Clear